Date String (YYYY-MM-DD hh:mm:ss) UTC,Instrument flags,Ambient pressure (hPa),Sample flow (lpm),Bypass flow (lpm),Sample temperature (°C),Ambient temperature (°C),ASC tube jacket temperature (°C),LED temperature (°C),Box temperature (°C),Sample RH (%),Span deviation,Mass concentration (μg/m³),Mass concentration (μg/m³),Mass concentration (μg/m³)
DateTimeUTC,F1_M11,P_M11,Q1_M11,Q2_M11,T1_M11,T2_M11,T3_M11,T4_M11,T5_M11,U1_M11,ZSPAN_M11,X0_M11,X2_M11,X1_M11
2021-11-21 19:00:00,,0834.5,5.00,0.00,24.2,23.6,00.0,33.0,26.0,10.6,0000.0,0006.71,0002.42,0002.05
2021-11-21 19:01:00,,0834.5,5.00,0.00,24.2,23.6,00.0,33.0,26.1,10.6,0000.0,0006.78,0002.42,0002.06
2021-11-21 19:02:00,,0834.5,4.99,0.00,24.2,23.7,00.0,33.1,26.1,10.6,0000.0,0007.13,0002.46,0002.08
2021-11-21 19:03:00,,0834.4,5.01,0.00,24.3,23.7,00.0,33.1,26.2,10.7,0000.0,0007.41,0002.54,0002.10
2021-11-21 19:04:00,,0834.5,4.99,0.00,24.3,23.7,00.0,33.1,26.2,11.0,0000.0,0007.88,0002.56,0002.11
2021-11-21 19:05:00,,0834.4,5.01,0.00,24.3,23.8,00.0,33.1,26.3,11.1,0000.0,0007.89,0002.62,0002.14
2021-11-21 19:06:00,,0834.4,4.99,0.00,24.4,23.8,00.0,33.2,26.3,11.4,0000.0,0007.80,0002.71,0002.22
2021-11-21 19:07:00,,0834.4,5.01,0.00,24.4,23.8,00.0,33.2,26.3,11.4,0000.0,0007.81,0002.87,0002.38
2021-11-21 19:08:00,,0834.3,4.99,0.00,24.4,23.8,00.0,33.2,26.3,11.3,0000.0,0008.00,0002.97,0002.48
2021-11-21 19:09:00,,0834.3,5.01,0.00,24.4,23.9,00.0,33.2,26.4,11.1,0000.0,0007.94,0003.05,0002.56
2021-11-21 19:10:00,,0834.3,5.00,0.00,24.5,23.9,00.0,33.3,26.4,11.1,0000.0,0007.31,0003.11,0002.62
2021-11-21 19:11:00,,0834.3,4.99,0.00,24.5,23.9,00.0,33.3,26.4,10.9,0000.0,0007.26,0003.12,0002.67
2021-11-21 19:12:00,,0834.3,5.00,0.00,24.5,23.9,00.0,33.3,26.4,10.8,0000.0,0007.09,0003.17,0002.70
2021-11-21 19:13:00,,0834.3,4.99,0.00,24.5,23.9,00.0,33.3,26.4,10.7,0000.0,0007.65,0003.19,0002.71
2021-11-21 19:14:00,,0834.2,5.00,0.00,24.5,23.9,00.0,33.3,26.4,10.4,0000.0,0008.16,0003.18,0002.73
2021-11-21 19:15:00,,0834.2,5.01,0.00,24.5,23.9,00.0,33.4,26.4,10.3,0000.0,0007.59,0003.15,0002.71
2021-11-21 19:16:00,,0834.1,4.99,0.00,24.5,23.9,00.0,33.4,26.4,10.4,0000.0,0007.30,0003.11,0002.68
2021-11-21 19:17:00,,0834.1,5.01,0.00,24.6,23.9,00.0,33.4,26.4,10.3,0000.0,0007.23,0003.05,0002.63
2021-11-21 19:18:00,,0834.1,5.00,0.00,24.6,24.0,00.0,33.4,26.5,10.3,0000.0,0007.13,0002.92,0002.50
2021-11-21 19:19:00,,0834.1,5.00,0.00,24.6,24.0,00.0,33.4,26.5,10.3,0000.0,0006.85,0002.83,0002.41
2021-11-21 19:20:00,,0834.1,5.00,0.00,24.6,24.0,00.0,33.4,26.5,10.6,0000.0,0006.31,0002.79,0002.36
2021-11-21 19:21:00,,0834.1,5.00,0.00,24.6,24.0,00.0,33.5,26.5,10.6,0000.0,0006.34,0002.79,0002.36
2021-11-21 19:22:00,,0834.0,4.99,0.00,24.7,24.0,00.0,33.5,26.6,10.7,0000.0,0006.45,0002.84,0002.36
2021-11-21 19:23:00,,0834.1,5.02,0.00,24.7,24.0,00.0,33.5,26.6,10.7,0000.0,0006.62,0002.90,0002.39
2021-11-21 19:24:00,,0834.1,4.99,0.00,24.7,24.1,00.0,33.5,26.6,10.7,0000.0,0005.95,0002.92,0002.42
2021-11-21 19:25:00,,0834.1,5.01,0.00,24.7,24.1,00.0,33.5,26.6,10.6,0000.0,0004.65,0002.93,0002.44
2021-11-21 19:26:00,,0834.0,5.00,0.00,24.7,24.1,00.0,33.6,26.6,10.6,0000.0,0004.16,0002.99,0002.48
2021-11-21 19:27:00,,0834.0,4.99,0.00,24.7,24.1,00.0,33.6,26.6,10.7,0000.0,0004.30,0003.08,0002.55
2021-11-21 19:28:00,,0834.0,4.99,0.00,24.8,24.1,00.0,33.6,26.6,10.7,0000.0,0004.38,0003.13,0002.61
2021-11-21 19:29:00,,0834.0,5.00,0.00,24.8,24.1,00.0,33.6,26.6,10.8,0000.0,0004.58,0003.17,0002.67
2021-11-21 19:30:00,,0833.9,5.00,0.00,24.8,24.2,00.0,33.6,26.7,10.7,0000.0,0004.54,0003.17,0002.72
2021-11-21 19:31:00,,0833.9,4.99,0.00,24.8,24.2,00.0,33.7,26.7,10.7,0000.0,0004.58,0003.18,0002.74
2021-11-21 19:32:00,,0833.9,5.01,0.00,24.9,24.3,00.0,33.7,26.7,10.6,0000.0,0004.77,0003.20,0002.74
2021-11-21 19:33:00,,0833.9,4.99,0.00,24.9,24.3,00.0,33.7,26.8,10.5,0000.0,0004.81,0003.17,0002.71
2021-11-21 19:34:00,,0833.9,5.00,0.00,24.9,24.3,00.0,33.7,26.8,10.5,0000.0,0004.57,0003.12,0002.67
2021-11-21 19:35:00,,0833.9,5.00,0.00,24.9,24.3,00.0,33.8,26.8,10.4,0000.0,0004.50,0003.08,0002.63
2021-11-21 19:36:00,,0833.8,4.99,0.00,24.9,24.3,00.0,33.8,26.8,10.4,0000.0,0004.61,0003.06,0002.60
2021-11-21 19:37:00,,0833.8,5.01,0.00,25.0,24.3,00.0,33.8,26.8,10.4,0000.0,0004.66,0003.05,0002.59
2021-11-21 19:38:00,,0833.9,5.00,0.00,25.0,24.3,00.0,33.8,26.8,10.2,0000.0,0004.69,0003.04,0002.56
2021-11-21 19:39:00,,0833.8,5.00,0.00,25.0,24.3,00.0,33.8,26.9,10.2,0000.0,0004.69,0003.03,0002.51
2021-11-21 19:40:00,,0833.8,4.99,0.00,25.0,24.3,00.0,33.8,26.9,10.2,0000.0,0004.46,0002.96,0002.46
2021-11-21 19:41:00,,0833.7,5.00,0.00,25.0,24.4,00.0,33.8,26.9,10.2,0000.0,0004.53,0002.98,0002.43
2021-11-21 19:42:00,,0833.7,5.01,0.00,25.0,24.4,00.0,33.9,26.9,10.2,0000.0,0004.32,0002.91,0002.40
2021-11-21 19:43:00,,0833.7,4.99,0.00,25.1,24.4,00.0,33.9,26.9,10.3,0000.0,0004.00,0002.82,0002.36
2021-11-21 19:44:00,,0833.7,5.00,0.00,25.1,24.4,00.0,33.9,27.0,10.2,0000.0,0003.81,0002.78,0002.35
2021-11-21 19:45:00,,0833.7,5.01,0.00,25.1,24.5,00.0,33.9,27.0,10.2,0000.0,0004.41,0002.77,0002.35
2021-11-21 19:46:00,,0833.6,4.99,0.00,25.1,24.4,00.0,34.0,27.0,10.1,0000.0,0005.49,0002.78,0002.35
2021-11-21 19:47:00,,0833.6,5.01,0.00,25.1,24.4,00.0,34.0,27.0,10.2,0000.0,0005.70,0002.76,0002.33
2021-11-21 19:48:00,,0833.6,4.99,0.00,25.1,24.4,00.0,34.0,27.0,10.1,0000.0,0005.56,0002.72,0002.31
2021-11-21 19:49:00,,0833.6,5.01,0.00,25.1,24.5,00.0,34.0,27.0,10.1,0000.0,0005.53,0002.69,0002.28
2021-11-21 19:50:00,,0833.6,4.99,0.00,25.2,24.5,00.0,34.0,27.0,10.2,0000.0,0005.55,0002.69,0002.29
2021-11-21 19:51:00,,0833.6,5.01,0.00,25.2,24.5,00.0,34.0,27.1,10.1,0000.0,0005.69,0002.71,0002.28
2021-11-21 19:52:00,,0833.6,5.01,0.00,25.2,24.5,00.0,34.1,27.1,10.0,0000.0,0005.64,0002.67,0002.27
2021-11-21 19:53:00,,0833.6,5.00,0.00,25.2,24.6,00.0,34.1,27.1,10.2,0000.0,0005.75,0002.69,0002.26
2021-11-21 19:54:00,,0833.6,5.01,0.00,25.2,24.6,00.0,34.1,27.1,10.2,0000.0,0005.98,0002.78,0002.26
2021-11-21 19:55:00,,0833.6,4.99,0.00,25.3,24.6,00.0,34.1,27.1,10.2,0000.0,0006.15,0002.83,0002.28
2021-11-21 19:56:00,,0833.5,5.01,0.00,25.3,24.6,00.0,34.1,27.2,10.2,0000.0,0005.73,0002.85,0002.31
2021-11-21 19:57:00,,0833.5,5.00,0.00,25.3,24.6,00.0,34.1,27.2,10.2,0000.0,0005.49,0002.85,0002.33
2021-11-21 19:58:00,,0833.5,5.00,0.00,25.3,24.6,00.0,34.1,27.2,10.1,0000.0,0005.73,0002.87,0002.36
2021-11-21 19:59:00,,0833.5,5.00,0.00,25.3,24.6,00.0,34.2,27.2,10.1,0000.0,0006.77,0002.92,0002.38
